Regional Weather Roundup
Issued by NWS Kansas City/Pleasant Hill, MO

Home | Current Version | Previous Version | Graphics & Text | Print | Product List | Glossary Off
Versions: 1 2 3 4 5 6 7 8 9 10 11 12 13 14 15 16 17 18 19 20 21 22 23 24 25 26 27 28 29 30 31 32 33 34 35 36 37 38 39 40 41 42 43 44 45 46 47 48 49 50

000
ASUS43 KEAX 271610
RWREAX

WEATHER ROUNDUP FOR EASTERN KANSAS AND NORTHWEST MISSOURI
NATIONAL WEATHER SERVICE KANSAS CITY/PLEASANT HILL MO
1100 AM CDT WED MAY 27 2015

KSZ040-057-103>105-MOZ028-029-037-043-271700-
...KANSAS CITY METROPOLITAN AREA...

CITY           SKY/WX    TMP DP  RH WIND       PRES   REMARKS
K.C. INTL      MOSUNNY   76  57  51 VRB5      30.10R
K.C. DOWNTOWN  SUNNY     77  55  46 NW3       30.09R
LEES SUMMIT    SUNNY     76  57  51 NE5       30.10S
OLATHE - IXD   SUNNY     75  55  49 E6        30.10F
OLATHE - OJC   SUNNY     76  54  46 N6        30.09S
LAWRENCE       SUNNY     75  59  57 S5        30.10R

$$

MOZ001>008-011>017-020>025-030>033-038>040-044>046-053-054-271700-
...NORTHERN AND CENTRAL MISSOURI...

CITY           SKY/WX    TMP DP  RH WIND       PRES   REMARKS
ST. JOSEPH     SUNNY     76  55  48 N3        30.08S
MOSBY          SUNNY     73  55  53 CALM      30.10R
WARRENSBURG    SUNNY     73  55  53 NW7       30.09F
WHITEMAN AFB   SUNNY     75  58  54 N8        30.09S
CLINTON        SUNNY     75  57  53 CALM      30.11R
SEDALIA        SUNNY     76  57  51 W7        30.11R
WARSAW         NOT AVBL
CHILLICOTHE      N/A     73  61  65 S7        30.09R
KIRKSVILLE     SUNNY     73  58  59 W8        30.08R

$$

MOZ041-047>049-056>058-063>065-088>090-097-271700-
...EASTERN AND SOUTHERN MISSOURI...

CITY           SKY/WX    TMP DP  RH WIND       PRES   REMARKS
ST. LOUIS INTL PTSUNNY   77  62  59 W12       30.07R
SPIRIT OF STL  PTSUNNY   75  64  68 SW13      30.06R
COLUMBIA       SUNNY     76  59  55 NW9       30.09R
JEFFERSON CITY SUNNY     75  59  57 W12       30.08R
ROLLA          MOSUNNY   71  66  84 SW8       30.09S
SPRINGFIELD    SUNNY     75  64  68 VRB3      30.12R
BRANSON        PTSUNNY   75  64  69 CALM      30.14S
JOPLIN         MOSUNNY   78  65  63 VRB5      30.11R
WEST PLAINS    PTSUNNY   73  64  73 VRB3      30.14S

$$

IAZ060-094-KSZ022-034>040-054-083-096-NEZ052-066-093-271700-
...KANSAS...SOUTHEAST NEBRASKA AND IOWA...

CITY           SKY/WX    TMP DP  RH WIND       PRES   REMARKS
TOPEKA         SUNNY     76  54  46 CALM      30.09R
MANHATTAN      SUNNY     74  55  51 E6        30.08S
EMPORIA        MOSUNNY   74  55  51 E12       30.09R
CHANUTE        MOSUNNY   75  58  55 E8        30.10S
WICHITA        PTSUNNY   72  63  73 SE10      30.09R
OMAHA          MOSUNNY   72  58  61 S3        30.06S
LINCOLN        SUNNY     75  55  49 CALM      30.08S
FALLS CITY     SUNNY     75  56  51 W7        30.07S
LAMONI         SUNNY     76  58  53 CALM      30.07R
DES MOINES     SUNNY     74  56  53 CALM      30.04R

$$




USA.gov is the U.S. government's official web portal to all federal, state and local government web resources and services.